ECMWFFLT1_250_spd_006.txt.gz
Wind_Speed
41 38 35 34 35 36 36 36 36 35 33 32 31 29 28 28 28 27 28 28 28 28 28 28 29 30 32 33 33 34 36 37 39 40 41 43 47 50 49 48 47 46 44 42 42 44 45 44 44 41 38 36 35 33 31 30 32 33 35 37 39 43 48
40 38 35 34 35 36 36 37 37 36 35 35 34 32 30 28 28 28 28 28 28 28 28 28 28 29 30 31 32 33 34 36 37 39 40 40 42 47 50 50 50 48 45 43 42 44 45 45 44 42 41 39 38 36 34 32 32 33 35 38 39 41 45
38 36 35 34 34 34 35 36 37 36 36 36 35 34 33 31 29 28 28 29 29 29 28 28 28 28 29 30 30 30 31 32 34 36 39 40 41 42 45 47 50 49 47 46 44 43 44 44 44 43 42 41 40 38 36 33 32 32 35 39 41 41 42
36 36 35 34 34 34 35 35 35 36 37 36 36 36 35 34 32 30 29 29 30 30 30 29 28 28 28 28 29 29 29 30 31 33 35 37 40 42 43 45 48 49 48 48 47 45 45 45 45 45 43 42 41 40 37 35 34 35 37 40 42 43 42
39 39 39 38 39 38 38 37 37 37 37 36 37 37 37 37 36 34 32 31 30 31 31 31 30 29 28 28 29 29 29 30 30 31 32 33 36 39 43 45 47 49 49 48 48 47 46 47 48 47 47 46 44 42 40 39 40 40 40 41 43 44 43
41 43 45 44 44 44 43 42 42 42 41 40 40 40 40 39 38 37 36 34 32 32 32 32 32 31 30 30 30 30 30 30 31 31 32 32 33 35 39 43 46 49 50 50 49 48 48 48 48 48 49 49 48 46 44 43 43 43 42 43 44 44 44
43 44 46 46 46 46 47 47 46 45 44 42 42 42 42 41 40 40 39 37 35 34 33 33 34 34 34 33 33 33 33 32 32 32 32 32 33 34 36 39 43 46 49 51 51 50 50 50 49 49 49 50 49 48 47 45 44 44 44 44 44 44 44
47 46 48 48 46 45 46 46 45 43 41 41 41 42 42 43 42 41 41 41 39 37 36 35 35 36 36 36 36 36 36 35 34 34 33 33 33 34 35 37 39 43 46 50 52 52 53 52 50 49 49 49 49 48 47 46 44 44 45 45 45 45 45
49 48 49 50 48 45 44 43 42 41 41 42 42 41 42 42 43 43 44 43 42 41 40 38 38 38 38 38 38 38 38 37 36 36 35 35 34 34 35 36 37 39 42 46 49 52 55 55 53 51 50 50 49 48 46 46 45 45 45 46 46 46 46
46 45 46 49 47 44 43 42 43 43 45 45 44 43 43 42 43 45 45 45 45 44 44 43 41 41 41 41 41 41 40 40 39 38 37 37 36 36 36 36 37 38 39 41 44 48 52 56 56 55 53 52 50 49 47 47 47 47 46 46 48 49 48
43 42 43 46 46 44 43 44 45 48 50 51 50 48 46 44 43 44 45 46 47 47 46 46 45 45 44 43 43 43 43 42 42 41 40 39 39 38 37 37 38 38 39 39 41 43 46 51 55 57 57 55 53 51 50 48 48 48 48 48 49 51 51
47 45 44 45 46 46 45 45 47 51 54 56 56 54 52 49 45 44 45 46 46 47 48 48 48 48 47 47 46 46 45 45 44 44 43 42 41 40 39 39 39 39 40 40 41 42 43 45 49 53 56 57 57 55 54 52 50 50 51 50 50 52 54
49 50 52 52 51 49 48 49 53 56 57 58 58 57 56 54 50 48 47 47 47 48 49 49 50 49 50 50 49 49 49 48 48 47 46 45 44 43 42 41 40 41 41 42 42 42 43 43 45 48 51 55 58 58 58 57 56 54 54 54 53 53 55
53 54 57 59 58 58 58 61 63 62 61 59 58 57 57 57 55 53 52 52 51 51 50 50 51 51 51 51 52 52 52 52 51 51 49 48 47 46 45 44 43 43 43 43 43 43 44 44 44 45 47 50 55 58 61 62 60 58 56 57 57 56 56
61 60 61 63 64 65 68 70 69 66 63 60 58 57 57 58 57 55 55 56 56 55 54 53 53 53 52 53 53 54 54 54 54 53 53 52 51 50 49 48 47 46 46 45 45 45 45 45 45 46 47 48 50 54 58 61 62 61 59 58 59 60 60
64 64 64 66 67 68 70 70 68 65 61 59 57 56 55 55 56 57 57 58 59 59 58 57 56 55 55 55 55 55 55 56 56 56 55 54 54 53 52 52 51 50 49 49 48 48 47 47 47 47 47 48 49 50 53 56 59 61 61 60 59 60 61
62 63 63 63 64 65 64 64 62 61 59 58 58 57 56 56 58 59 59 60 60 61 61 60 60 60 60 59 58 58 58 58 58 57 57 56 56 56 55 55 54 53 53 52 52 51 51 51 50 49 49 49 50 51 52 53 55 57 59 60 60 60 61
59 60 59 59 59 59 58 57 56 57 58 59 59 60 60 60 60 59 58 58 60 61 61 61 62 63 63 62 62 61 60 60 60 59 58 58 58 58 58 58 57 57 56 56 55 54 54 54 54 54 53 53 52 53 53 54 55 56 57 58 59 60 62
56 57 57 56 55 55 54 52 53 55 56 57 57 58 58 59 59 57 56 56 57 59 61 61 62 62 62 62 62 62 62 61 61 60 59 60 60 59 59 60 60 60 59 59 58 58 57 57 57 57 58 57 57 56 56 56 56 57 58 59 59 60 61
50 51 53 54 52 52 52 52 51 51 52 53 54 54 52 53 55 56 56 57 57 58 59 61 62 62 62 62 61 62 63 63 62 61 60 60 61 61 61 61 62 62 62 62 61 61 61 60 60 60 61 61 61 61 60 60 59 59 59 60 60 61 61
43 43 44 47 47 47 49 51 50 49 49 48 47 48 48 48 51 53 54 55 56 57 58 60 62 63 63 64 64 64 63 63 62 62 61 60 61 61 63 63 63 64 65 65 65 64 63 63 63 64 64 63 63 64 64 64 63 63 62 62 62 62 63
39 40 39 40 42 44 47 48 48 51 52 49 45 47 50 51 53 55 54 52 51 52 54 56 59 61 63 65 67 68 68 66 65 64 63 62 62 63 64 65 66 67 67 67 67 66 65 65 66 67 67 67 67 67 66 66 66 66 66 66 66 65 65
40 44 44 41 42 46 48 45 44 50 56 56 55 56 55 53 53 54 52 51 50 49 51 53 56 58 60 62 65 67 68 69 67 66 66 65 65 65 66 67 68 69 69 70 69 68 68 68 68 69 69 69 70 70 70 69 69 68 69 69 69 69 69
51 51 50 47 46 48 51 48 46 49 55 58 60 61 60 57 55 54 55 55 54 53 52 54 57 59 60 61 62 63 65 66 66 65 66 66 65 65 67 69 70 70 71 72 72 71 71 72 72 71 72 72 73 73 73 73 72 72 71 72 73 73 72
61 60 59 58 55 54 56 57 55 55 56 59 61 62 62 61 59 59 59 60 59 57 56 57 59 60 62 63 63 63 64 64 64 64 64 64 64 65 67 69 70 71 73 73 73 73 74 74 75 75 75 76 76 76 76 76 76 75 75 75 76 76 76
66 66 65 64 63 62 62 63 64 64 64 64 64 63 63 62 62 62 62 62 62 61 61 61 61 62 63 64 65 65 65 65 65 64 64 63 64 65 67 67 68 70 72 73 73 73 74 74 76 76 76 77 77 78 79 79 78 77 77 77 78 79 79
63 64 64 63 63 63 62 63 64 65 65 65 63 63 63 63 63 64 64 65 65 65 65 64 64 64 65 66 67 67 67 67 67 66 66 65 65 66 67 68 68 68 69 69 70 71 72 73 75 76 76 76 76 77 79 80 80 79 78 79 80 81 82
62 63 63 63 63 63 62 62 62 62 63 63 63 64 64 64 65 66 67 68 69 69 69 68 67 68 68 68 69 69 69 70 69 69 69 69 68 69 70 70 70 70 70 68 68 69 71 73 75 76 76 76 76 76 77 78 79 79 79 79 80 82 83
62 64 64 64 64 63 63 62 62 62 62 63 64 65 65 67 68 69 70 71 71 71 71 71 70 71 71 71 71 71 72 73 73 73 73 72 72 72 73 73 74 73 72 70 69 70 72 74 75 75 76 77 77 77 77 78 78 79 79 79 80 81 83
63 64 64 64 64 64 63 62 62 63 64 65 66 66 67 68 69 70 71 72 73 73 74 73 73 73 73 73 73 73 74 75 75 76 76 76 76 75 75 76 77 76 75 74 73 73 74 75 75 75 76 77 79 80 81 82 82 82 82 82 83 84 84
63 63 63 64 64 64 64 65 65 66 67 67 68 68 69 70 70 71 72 72 73 74 74 75 74 74 74 75 75 75 76 76 77 77 78 78 78 78 78 78 79 79 79 78 78 78 78 78 77 77 77 77 79 81 83 85 86 87 87 87 87 87 87
64 64 64 65 65 66 67 68 69 69 69 69 69 70 70 71 71 72 72 73 73 74 74 75 75 75 75 75 76 76 77 77 78 78 79 79 79 79 80 80 80 81 81 81 81 81 81 81 80 80 81 81 81 82 84 85 86 87 88 87 87 86 87
66 67 67 68 68 69 71 72 72 72 71 71 71 71 71 72 72 73 73 74 74 74 74 74 74 75 75 76 76 76 77 78 78 78 79 79 80 80 80 81 81 82 83 83 83 83 83 83 83 83 84 85 85 86 87 87 87 88 88 87 86 86 86
68 69 70 71 72 72 73 74 75 74 74 73 73 73 73 73 73 74 74 75 75 75 74 74 74 74 74 74 75 76 76 77 78 78 78 79 80 80 81 81 82 83 83 84 84 84 84 84 84 85 86 87 88 88 89 90 90 90 89 89 88 88 87
71 72 73 74 75 75 76 76 77 78 77 75 74 74 74 75 75 75 75 75 75 75 74 74 73 73 73 73 73 74 75 76 76 77 77 78 78 79 80 81 82 83 83 83 83 84 84 85 86 86 86 87 87 88 88 90 90 90 90 89 89 89 89
74 75 76 76 77 77 78 78 78 79 79 78 77 76 77 77 76 75 75 74 74 73 73 72 72 72 71 72 72 73 73 74 75 75 75 76 77 78 78 79 80 81 82 83 83 84 85 86 86 86 86 86 86 87 87 87 87 87 87 87 87 87 88
76 76 77 78 79 79 79 78 78 78 78 79 80 80 79 78 76 75 74 73 72 71 70 70 70 70 70 71 71 72 72 71 71 72 72 73 74 75 76 77 79 80 81 81 82 84 85 85 85 85 85 85 85 85 85 84 84 83 83 83 83 84 85

ECMWFFLT1_250_spd_009.txt.gz
Wind_Speed
46 46 46 45 43 42 40 38 37 35 32 30 29 29 29 29 30 30 29 29 29 28 27 27 27 27 27 27 26 26 26 26 26 26 26 27 28 30 31 32 34 36 38 39 38 36 35 36 39 39 39 38 38 41 42 40 36 35 36 35 34 34 35
49 48 47 47 45 42 39 37 35 33 31 30 29 28 28 28 28 29 30 30 29 28 28 28 27 27 27 27 27 26 26 25 25 25 26 26 27 29 31 32 34 36 38 41 41 40 38 37 38 39 39 39 39 40 42 42 38 36 36 34 32 33 34
51 48 47 45 44 41 37 33 32 31 30 29 27 27 26 27 28 28 30 30 30 29 29 29 28 28 27 27 27 27 26 26 25 25 25 26 26 27 29 31 33 35 37 39 42 44 43 40 40 41 40 40 40 40 42 43 42 40 38 35 32 32 33
50 47 44 41 39 36 33 31 30 30 29 29 28 27 28 28 29 30 31 32 32 32 31 30 29 28 28 28 28 28 27 26 26 25 26 26 27 27 28 29 31 33 36 37 39 43 46 45 43 43 42 41 41 42 42 44 46 44 41 38 36 33 32
46 43 40 38 36 34 33 32 32 31 31 31 31 32 32 32 33 34 34 34 34 34 34 33 32 30 29 28 28 29 28 27 26 26 26 26 27 28 28 29 30 32 34 37 38 40 44 47 45 44 43 43 42 43 44 44 45 46 45 43 40 37 34
45 42 39 38 36 33 33 34 34 34 34 34 34 35 35 35 36 36 34 32 32 33 35 36 35 33 32 31 30 30 30 29 28 27 27 27 27 28 29 30 31 32 33 35 37 39 42 45 47 46 45 44 43 43 45 44 44 46 47 46 44 41 38
46 44 41 40 38 36 35 36 36 36 36 37 37 37 36 36 36 35 32 30 29 31 33 35 36 36 35 34 33 32 31 31 31 31 30 29 29 28 28 30 31 32 33 34 35 37 39 42 45 46 46 45 45 45 45 45 45 45 47 48 46 43 40
48 46 43 42 40 39 39 39 38 38 38 39 39 39 37 37 36 33 31 30 30 31 32 34 36 37 37 37 36 35 34 33 33 33 33 33 32 30 29 29 30 31 32 33 34 36 37 40 42 45 46 46 46 47 47 47 47 46 47 48 48 45 43
50 48 45 44 43 42 42 42 41 40 39 39 39 38 37 37 36 34 33 34 35 36 36 36 36 37 37 38 38 38 37 36 35 35 36 35 35 34 33 31 31 31 31 32 33 34 36 38 40 42 45 46 47 47 48 48 48 48 48 48 49 48 46
51 50 48 46 45 44 43 42 41 39 37 36 36 36 36 37 36 36 36 37 38 39 41 41 40 39 39 39 39 39 39 39 38 37 37 37 37 36 36 35 34 33 32 32 32 33 34 36 37 39 41 44 46 48 49 49 49 49 49 50 50 51 51
56 54 52 50 48 47 45 43 42 39 37 36 36 36 37 38 38 38 38 38 39 42 44 45 45 44 42 41 40 40 41 41 40 40 40 39 39 39 38 37 37 37 36 35 33 33 33 34 35 37 39 40 43 46 49 51 51 50 50 50 51 52 52
56 57 57 56 54 50 48 46 44 42 40 41 41 41 41 42 42 42 42 43 46 48 49 49 48 47 47 45 43 42 42 42 42 42 42 42 41 41 41 40 39 39 39 39 38 36 34 34 34 35 37 38 40 42 46 50 53 54 52 51 51 52 53
57 58 60 60 57 52 49 47 45 44 44 45 45 45 46 48 49 49 50 52 55 56 55 53 51 49 49 48 47 45 43 43 43 43 44 44 44 44 43 43 42 42 41 42 42 41 39 37 36 36 36 37 38 40 42 46 50 54 56 55 54 53 54
60 60 60 60 58 54 51 48 47 47 48 49 49 49 50 52 55 56 57 59 61 61 60 57 54 51 50 50 50 48 47 46 45 44 45 46 46 46 46 46 45 45 44 44 44 44 43 42 41 39 38 38 38 39 40 42 45 49 54 58 58 57 56
61 61 60 59 59 58 55 52 51 51 51 53 55 56 57 58 59 60 61 62 63 63 62 59 56 53 51 50 51 51 50 49 48 47 47 47 48 49 48 48 48 47 47 47 47 47 46 46 45 44 43 42 41 40 41 41 43 45 48 52 57 59 60
58 59 60 61 61 61 59 57 56 55 55 57 60 62 64 65 65 65 64 65 64 62 60 58 55 53 51 50 51 52 51 50 50 50 50 50 50 50 51 50 49 49 49 49 49 50 49 49 48 48 47 47 46 45 44 43 43 44 45 47 50 54 57
55 57 60 61 61 61 61 61 61 60 60 61 63 65 66 66 65 65 64 63 61 59 57 56 55 54 53 52 52 52 52 52 52 52 53 53 52 52 52 51 50 50 50 51 51 52 52 52 52 51 51 51 50 50 49 47 46 45 45 46 48 50 52
54 56 59 57 54 55 57 59 60 61 61 62 63 64 64 63 62 61 60 59 58 57 56 55 55 55 55 54 54 54 54 55 55 55 55 55 55 55 55 54 53 52 52 53 53 54 54 54 55 54 54 54 54 54 53 52 51 50 49 48 48 49 50
50 53 55 54 52 51 53 55 56 57 58 59 60 61 62 61 60 58 57 56 56 56 56 55 55 56 56 55 55 55 56 57 57 56 56 56 57 57 57 57 57 57 55 55 56 56 56 56 56 56 57 57 57 57 57 56 56 55 54 53 51 51 51
50 51 52 53 53 53 54 55 54 53 53 54 55 57 58 59 59 59 57 56 57 57 56 56 57 56 56 55 54 55 55 55 55 55 55 56 56 57 58 59 59 59 58 57 57 58 58 58 58 58 59 59 60 60 59 59 59 59 59 58 57 56 55
49 49 51 52 53 54 55 54 51 50 49 49 48 49 52 54 54 53 50 50 54 57 57 55 53 51 50 50 49 49 50 50 50 52 53 55 56 57 58 58 58 58 59 59 58 59 59 59 59 60 60 61 61 62 62 62 62 62 62 62 62 61 61
48 45 46 49 52 54 53 51 49 48 48 48 48 47 47 48 48 47 45 47 53 58 56 51 47 43 41 42 43 45 47 47 48 49 51 54 56 57 59 60 60 60 60 60 60 60 61 62 62 62 62 62 63 64 64 64 64 65 65 65 65 65 65
50 48 47 49 50 50 50 50 51 50 47 48 50 48 47 47 48 48 49 50 54 57 56 53 49 46 43 41 43 46 49 50 49 49 51 53 55 56 58 60 62 62 63 64 63 63 63 64 64 64 65 65 66 66 66 67 67 67 67 68 68 68 68
53 55 56 56 54 52 51 52 52 50 48 50 51 50 49 50 51 51 51 52 55 57 57 57 55 53 51 49 49 50 52 53 53 53 54 55 55 56 57 58 60 61 63 65 66 67 67 67 67 67 68 69 69 68 68 68 69 69 70 71 71 71 71
55 56 60 60 58 57 57 57 56 51 49 50 52 52 53 52 52 52 52 54 57 58 60 61 60 58 57 56 56 57 58 58 58 58 58 59 60 59 58 58 59 60 61 62 64 66 68 69 70 71 72 73 73 72 71 71 72 73 74 74 74 74 74
59 59 61 63 61 59 60 61 60 57 53 53 53 54 55 54 54 54 55 57 59 60 60 61 61 61 61 61 62 63 63 63 61 60 60 61 63 64 63 62 61 61 61 62 63 65 66 67 69 71 73 74 75 75 74 74 75 76 76 76 76 77 78
62 62 63 65 65 63 62 63 63 62 60 59 58 57 58 58 58 57 57 59 61 62 63 64 65 66 67 67 67 67 67 66 65 64 63 63 65 66 67 68 67 66 65 64 65 66 66 66 67 68 70 72 74 74 74 75 76 76 77 78 78 80 81
63 63 64 65 67 67 67 67 67 66 66 65 64 64 64 65 66 65 64 64 65 66 68 70 71 72 71 71 70 69 68 67 67 67 66 66 67 68 69 71 72 72 71 70 69 69 68 68 67 67 68 70 72 72 73 73 74 75 77 78 80 82 83
61 63 64 65 67 69 70 70 70 71 71 72 72 72 71 71 71 71 71 71 72 73 74 74 73 73 72 72 71 70 70 69 69 69 70 70 70 71 71 72 73 75 75 75 75 74 73 72 71 70 70 71 71 72 72 72 73 74 76 77 79 82 83
60 62 63 65 67 70 72 72 72 73 74 76 77 79 78 78 78 78 78 78 78 77 76 75 74 73 73 73 73 72 72 72 72 72 73 73 74 74 75 75 76 77 78 78 79 79 79 78 77 76 75 74 74 74 73 73 74 75 77 78 80 81 81
58 60 62 64 67 70 71 72 72 73 74 75 77 79 80 82 82 82 82 80 78 76 75 75 74 74 74 74 75 75 75 75 76 76 76 77 77 77 77 78 78 79 80 80 81 82 82 82 82 82 81 80 79 78 77 77 77 78 79 80 80 80 80
57 59 61 64 67 69 70 71 71 71 72 73 73 75 76 77 78 78 77 76 75 75 75 75 75 75 75 76 76 77 77 78 78 79 79 79 79 79 79 79 79 80 80 81 82 83 84 84 85 85 85 84 83 83 82 81 80 80 80 81 81 81 81
58 59 62 64 66 68 69 69 69 69 69 69 70 72 73 74 75 75 75 76 76 76 76 75 75 75 76 77 78 79 80 80 80 80 80 80 80 80 80 80 80 80 81 81 82 83 84 85 86 86 87 86 86 86 85 84 84 84 83 83 82 82 82
60 61 62 64 65 66 67 68 67 67 67 68 70 71 72 74 75 76 77 78 78 78 77 77 77 78 78 79 80 80 81 82 82 81 81 81 81 81 80 80 80 80 80 81 81 82 83 84 85 86 86 87 87 87 87 86 86 86 86 86 85 85 84
63 63 64 66 66 66 67 67 68 68 69 70 71 73 74 76 77 79 80 80 80 80 80 80 80 80 80 80 80 81 82 82 82 82 82 81 81 81 81 80 79 79 79 79 79 80 82 83 84 84 85 86 86 87 87 87 86 86 86 86 86 86 86
67 67 67 69 70 70 70 70 70 70 71 72 73 75 76 78 79 81 82 82 82 82 82 82 82 82 81 81 81 81 82 82 82 82 82 81 81 81 80 78 77 76 76 76 76 77 78 79 81 82 83 84 85 85 86 86 85 85 85 84 85 85 86
70 70 71 72 73 74 74 74 74 74 74 75 76 77 79 80 81 83 84 84 83 83 84 84 83 82 81 81 81 82 82 82 82 81 81 81 80 79 77 75 74 73 73 72 73 73 74 75 77 78 79 80 81 82 83 83 83 83 83 83 83 83 84

ECMWFFLT1_250_spd_015.txt.gz
Wind_Speed
41 40 40 39 39 39 38 37 36 36 36 35 35 35 35 35 35 35 34 34 34 33 31 28 27 26 24 23 21 21 20 20 19 18 17 15 15 15 15 15 17 19 21 23 26 28 30 33 36 39 40 42 42 43 42 40 39 39 38 36 35 33 32
40 41 41 41 41 41 40 40 39 39 39 38 37 37 36 36 35 35 34 33 32 31 29 27 27 26 25 23 21 21 21 21 20 19 18 17 16 15 15 14 16 18 21 23 24 25 26 28 31 34 35 36 37 38 38 37 35 35 35 35 35 35 34
39 40 40 40 40 41 41 41 40 40 40 39 38 38 37 35 34 32 31 30 30 29 28 27 27 27 26 24 23 23 23 23 23 22 21 20 18 17 16 15 15 17 20 23 25 26 28 29 32 34 35 36 36 37 37 37 35 32 32 33 34 36 36
35 36 37 36 36 37 38 38 38 37 37 36 36 35 34 33 31 29 28 28 28 28 28 28 28 28 28 27 27 26 26 26 25 25 24 22 21 19 18 17 16 17 18 21 23 26 27 29 31 34 35 36 37 38 38 38 36 33 31 31 33 35 37
34 34 35 34 33 34 35 35 34 33 32 32 31 31 30 29 29 28 28 28 28 28 29 29 29 30 30 30 30 29 29 28 27 26 24 23 22 21 20 19 19 18 18 19 21 22 24 26 28 31 33 34 36 38 39 39 38 37 34 32 32 33 35
34 36 36 35 34 34 35 35 35 34 32 31 30 30 29 28 29 29 29 29 30 30 30 30 30 30 31 32 32 31 30 28 27 25 23 21 21 21 22 21 21 21 20 21 21 22 22 24 25 26 29 31 33 36 39 40 40 39 38 37 36 34 33
35 36 37 37 36 36 37 37 37 36 35 34 33 32 31 30 30 30 30 30 30 31 31 31 31 31 32 33 33 32 30 28 27 24 21 20 20 20 20 21 22 23 23 23 23 23 23 24 24 25 26 27 29 32 36 39 41 41 41 41 40 39 37
36 37 38 39 39 39 38 37 38 38 36 35 35 34 33 32 31 31 30 29 29 30 31 31 32 32 34 34 34 33 32 30 29 27 24 22 21 20 19 20 21 23 25 26 26 26 26 26 26 26 26 27 28 29 31 34 38 41 43 43 42 43 42
38 38 39 39 39 41 41 41 41 42 41 39 37 36 34 34 33 32 31 31 31 31 32 32 33 34 35 35 35 34 33 33 32 31 29 26 24 22 20 19 20 23 25 28 29 30 29 30 30 29 29 28 28 29 29 30 32 36 39 42 43 44 44
40 38 38 38 38 41 44 45 45 46 45 43 41 39 37 36 36 36 36 36 36 35 34 35 35 36 36 36 36 34 34 34 34 34 33 31 29 27 24 23 23 25 26 28 30 32 32 32 32 32 31 31 30 29 29 30 30 32 33 36 39 42 43
41 41 40 38 37 40 44 46 48 48 48 47 45 44 42 41 39 38 38 38 38 37 37 37 37 37 37 37 37 36 35 35 35 36 36 35 35 33 32 31 31 31 30 30 31 33 34 35 34 34 33 33 32 31 30 30 30 31 32 33 35 37 40
43 44 45 43 41 43 46 48 49 49 50 50 50 49 48 47 45 43 41 41 40 40 41 40 40 39 38 38 39 40 39 38 38 38 38 38 39 39 39 39 38 36 34 34 33 34 35 36 36 36 36 35 34 34 33 32 31 31 32 33 34 35 37
46 45 46 47 47 48 50 51 50 50 50 51 51 50 50 50 50 49 48 46 44 43 44 44 43 43 42 41 41 42 43 43 43 43 42 42 42 42 43 43 41 39 38 37 36 36 37 38 38 37 37 37 37 36 35 35 34 33 33 33 34 35 35
49 47 47 49 50 51 51 51 51 51 51 52 52 51 50 49 50 51 51 50 48 47 47 47 46 46 45 45 44 44 45 46 46 46 46 46 46 46 46 45 43 41 40 39 38 38 37 38 39 38 37 37 38 38 38 37 37 37 36 36 36 36 36
52 51 49 50 52 53 53 52 51 50 50 50 49 49 48 47 46 46 46 47 48 49 49 49 48 47 46 46 47 47 47 48 48 49 48 48 48 48 47 46 45 43 42 40 39 38 38 38 40 40 39 38 38 38 39 39 40 40 40 39 39 38 38
55 54 53 52 53 55 56 55 52 49 47 47 48 48 47 46 44 43 44 45 46 48 50 51 51 51 49 48 48 49 49 50 50 50 50 50 49 48 47 46 45 44 42 41 40 39 38 38 40 42 42 41 40 40 40 40 41 42 43 43 42 42 41
57 56 55 53 53 55 58 58 56 53 51 51 51 51 51 51 50 50 51 53 53 54 55 55 55 55 55 53 52 51 50 49 49 48 48 49 48 47 47 46 46 45 43 41 40 40 39 39 40 41 43 44 43 43 43 43 43 44 44 45 45 45 45
58 57 56 54 53 55 58 59 58 57 57 56 55 55 55 56 56 57 58 59 60 60 60 60 59 58 57 56 55 54 52 50 48 47 47 46 46 45 46 46 46 45 43 41 40 40 40 40 41 41 42 44 45 45 45 45 45 46 46 47 47 48 48
59 57 56 55 53 55 57 59 59 60 60 59 57 56 56 57 58 59 60 61 62 62 63 63 61 60 58 57 56 55 54 51 49 48 46 44 44 44 45 45 44 43 41 41 41 41 41 41 42 43 44 44 45 46 47 47 47 47 48 49 49 50 50
59 58 57 56 55 55 57 59 61 61 61 61 61 59 58 60 61 62 62 62 62 63 63 63 62 60 60 59 58 57 55 53 51 47 44 42 42 43 43 43 42 41 41 42 43 43 44 44 44 44 45 45 46 47 48 49 50 50 50 50 51 52 53
61 60 59 58 56 56 57 60 62 62 62 62 61 60 60 62 65 66 67 66 65 65 64 63 62 61 60 60 58 57 55 53 51 46 41 39 40 42 42 41 40 39 39 41 43 44 44 44 44 44 44 45 46 46 48 49 51 52 52 52 53 54 55
62 62 61 60 58 57 57 60 63 65 64 63 60 59 58 59 61 63 65 66 66 65 64 62 61 60 59 60 59 56 54 51 48 44 40 37 37 38 40 38 37 36 37 38 40 41 41 41 41 42 42 43 43 44 45 46 47 49 51 52 53 55 57
63 62 62 61 60 59 58 59 62 65 66 65 64 62 59 56 56 57 59 60 61 62 63 61 60 58 57 58 59 57 55 52 49 45 41 38 37 38 38 38 36 37 38 38 38 38 39 39 40 40 40 40 40 41 43 44 45 46 48 49 51 53 55
63 63 63 62 61 60 59 59 61 64 66 65 64 63 60 56 53 53 55 56 56 60 62 60 59 57 55 56 57 57 56 56 55 52 47 44 42 40 40 40 39 39 39 39 39 40 40 41 41 42 41 41 42 42 43 44 45 46 48 49 50 51 53
64 63 63 63 62 62 61 60 60 62 65 65 64 63 60 57 54 55 57 57 57 60 61 60 58 57 55 54 54 55 56 57 59 60 57 53 49 45 43 42 42 41 41 41 42 42 42 42 43 43 44 45 45 46 46 46 47 47 48 49 50 52 53
65 64 64 64 63 63 62 61 61 61 63 64 64 63 61 59 59 60 61 61 60 61 62 61 59 57 57 56 56 56 57 59 61 63 63 62 59 54 50 46 44 43 43 42 43 44 44 45 46 46 47 48 48 48 48 48 48 49 50 51 51 52 53
67 66 65 65 65 64 63 62 61 61 62 63 64 64 64 65 66 66 66 66 65 64 64 64 62 60 59 60 60 60 60 61 62 63 65 66 66 64 60 56 52 49 48 47 46 46 47 47 48 49 49 49 49 49 49 50 51 52 53 54 54 55 56
68 68 67 67 66 66 64 63 62 62 63 64 65 66 67 69 70 70 70 70 69 67 65 64 64 62 61 61 62 63 63 63 64 65 66 67 68 68 67 65 61 58 55 53 52 52 52 52 52 52 52 52 52 53 54 55 56 57 58 59 60 60 60
68 68 68 68 67 67 65 64 63 63 64 66 67 67 68 69 71 71 72 72 71 69 67 66 65 64 63 63 64 65 65 65 65 66 67 68 69 69 69 69 68 66 63 61 60 59 60 60 60 59 59 59 59 59 60 61 62 64 65 66 66 65 64
66 67 67 67 67 67 66 66 66 66 66 67 68 69 70 71 70 70 71 73 72 70 69 68 67 67 67 67 68 69 69 69 68 68 68 69 70 71 72 72 72 71 70 69 68 68 68 68 68 68 67 67 67 67 68 69 70 71 72 72 71 69 68
64 65 65 66 66 66 66 67 67 68 67 68 70 72 73 73 71 70 71 74 73 72 72 72 72 72 72 71 71 72 73 73 73 72 72 73 73 74 75 75 75 75 75 75 74 74 73 74 74 75 76 76 76 76 76 77 77 77 77 76 74 73 72
63 63 63 63 64 64 64 65 67 68 69 70 73 74 75 75 74 73 73 74 75 75 75 76 76 76 76 75 75 74 75 75 76 76 77 77 78 79 79 80 80 80 80 80 79 79 79 81 82 83 83 83 82 82 82 81 80 79 78 77 75 75 75
63 62 61 61 61 62 62 63 65 66 68 69 72 74 75 76 76 76 76 76 76 77 77 78 78 78 77 77 77 77 77 77 78 78 79 79 80 81 82 83 84 85 85 85 85 85 85 86 86 85 85 84 84 84 83 81 80 79 78 78 77 77 78
65 64 62 61 61 61 61 63 64 65 66 67 69 71 73 74 75 76 76 76 77 78 79 79 79 79 78 78 78 79 79 79 79 80 80 80 80 79 80 80 81 82 83 84 84 84 83 82 82 82 82 83 83 82 81 80 80 79 79 79 80 81 81
67 67 66 64 63 63 63 63 64 65 66 67 67 68 70 71 72 73 74 75 76 77 78 79 79 79 79 79 79 80 80 80 79 79 79 79 78 78 78 78 78 78 78 78 79 79 79 79 80 81 81 81 81 80 80 79 79 80 80 81 82 83 84
70 71 71 69 68 67 66 66 66 67 67 68 67 68 68 69 70 71 72 73 74 75 76 76 77 77 77 78 78 78 78 78 77 77 76 76 76 76 77 77 77 76 76 77 77 78 78 79 79 80 80 80 80 80 80 80 80 81 82 83 84 85 85
73 74 75 75 74 72 71 70 70 70 71 71 71 71 70 70 71 72 72 72 73 74 74 75 75 76 76 76 76 76 76 75 74 74 74 74 75 76 77 77 77 77 77 78 78 78 78 79 78 79 79 79 80 80 81 81 82 83 84 85 86 86 85

ECMWFFLT1_250_spd_021.txt.gz
Wind_Speed
34 33 30 27 25 24 24 26 26 27 27 27 28 28 28 29 29 29 29 29 30 32 34 37 39 40 41 42 42 42 43 43 42 41 41 41 40 38 35 34 35 34 34 34 33 33 33 34 35 36 37 39 42 44 46 47 47 45 43 42 43 44 47
33 30 28 27 25 23 23 24 25 25 26 26 27 26 26 27 28 29 30 31 32 33 34 35 37 38 39 40 40 40 40 40 39 39 38 38 36 34 32 32 33 34 34 33 32 30 30 32 34 35 36 37 39 41 44 45 45 46 45 45 45 45 46
34 29 27 27 27 25 24 25 26 26 27 27 27 26 25 25 25 26 27 28 29 30 32 33 34 35 36 37 37 37 37 36 35 34 34 33 32 31 31 32 33 33 33 33 32 32 32 34 36 36 37 37 38 40 42 45 47 48 48 49 49 49 49
37 33 30 28 28 27 26 26 27 26 25 26 26 25 24 23 23 23 23 24 25 25 26 27 28 29 30 31 31 32 32 32 31 31 31 30 29 30 30 32 33 33 33 33 34 35 36 36 36 36 36 36 37 37 39 41 44 47 48 50 51 52 51
37 34 31 29 29 28 28 28 28 26 25 25 26 25 24 23 23 22 23 23 23 23 24 24 25 26 27 28 28 29 29 30 30 30 30 30 30 30 31 32 34 34 35 36 37 37 38 38 38 37 36 35 35 35 35 35 37 40 43 45 48 51 52
36 33 31 30 30 30 30 30 30 30 28 28 27 26 25 24 23 23 23 24 24 25 25 26 27 27 28 28 29 30 30 30 30 31 31 31 31 32 32 33 34 35 36 37 38 39 39 40 40 39 38 36 34 33 32 33 33 34 36 39 43 47 50
37 35 33 32 31 31 32 32 32 33 33 31 29 28 27 26 25 25 25 26 26 27 27 28 29 30 30 31 31 32 32 33 33 33 33 33 33 34 34 34 35 35 37 37 38 38 38 39 40 41 39 37 34 33 32 32 32 32 33 35 38 42 47
36 36 35 34 34 33 33 33 33 33 34 34 33 31 29 28 27 27 28 29 29 29 29 30 31 32 33 33 33 33 34 35 35 35 35 35 35 35 35 36 36 36 37 37 37 37 36 37 39 40 40 38 36 34 33 32 32 32 32 32 34 37 40
37 38 38 39 40 39 39 39 38 38 38 39 38 35 32 30 29 29 30 31 32 31 31 31 32 33 34 35 35 36 36 36 37 37 37 36 36 36 36 37 37 37 37 37 37 36 36 37 38 39 40 39 38 36 35 35 34 34 34 34 34 34 36
41 42 42 43 45 45 46 47 47 46 45 43 42 40 38 36 34 33 33 34 35 35 34 34 33 33 34 35 37 38 38 39 39 40 40 39 39 39 39 39 39 38 37 36 36 37 37 37 38 38 39 40 40 40 39 37 36 36 36 36 37 37 37
44 44 43 42 43 44 46 48 50 49 48 46 45 44 43 42 41 40 39 39 40 40 40 39 37 36 36 36 37 38 39 39 39 39 40 40 40 40 39 39 39 38 37 36 36 38 39 40 40 40 40 41 42 42 41 40 38 37 37 37 38 39 40
47 46 44 41 40 42 45 47 48 49 48 48 47 46 46 47 47 46 45 45 45 45 45 44 43 42 41 40 40 40 40 39 38 36 36 37 38 38 38 37 37 37 37 37 37 38 40 42 43 44 45 45 44 44 44 42 39 38 37 38 39 40 41
51 50 48 43 39 42 45 44 44 46 47 47 47 47 47 48 48 47 45 45 45 47 48 48 48 47 46 45 44 44 43 41 40 38 36 35 35 35 35 35 35 35 35 36 37 38 40 42 44 46 47 48 48 48 48 46 44 42 41 41 41 42 42
54 54 52 48 44 44 47 46 43 44 46 47 48 48 48 49 49 49 47 46 48 50 51 51 52 51 51 50 49 48 47 45 44 42 40 37 35 34 34 34 34 34 34 34 35 37 39 42 45 47 48 49 50 51 52 52 51 51 51 49 47 46 45
57 57 56 54 51 49 51 52 51 50 51 52 53 53 53 53 52 50 49 51 53 54 54 54 55 54 54 53 53 52 52 50 49 48 46 44 41 38 37 36 35 35 35 34 35 36 38 41 45 48 50 51 52 53 54 55 56 57 57 56 54 52 51
59 60 60 60 58 56 56 57 58 58 58 58 58 58 58 58 56 52 51 54 56 56 56 56 56 56 55 55 55 55 55 54 53 52 51 50 48 46 44 42 40 39 39 38 38 39 40 41 43 46 49 51 53 55 56 57 58 59 59 59 59 57 55
62 63 64 64 63 61 60 60 60 60 61 61 61 61 60 60 58 56 57 59 60 60 59 58 58 57 56 57 57 57 57 56 55 55 54 54 53 52 51 50 48 47 45 43 43 43 43 43 44 45 47 49 51 53 55 56 58 59 60 60 60 59 58
64 65 67 67 67 65 64 63 62 62 62 62 63 65 65 64 63 63 63 64 64 64 62 61 59 58 57 58 58 58 58 58 57 57 56 56 56 56 55 55 54 52 51 49 48 47 46 45 45 45 46 47 48 50 52 54 55 56 57 58 59 60 59
65 66 68 69 70 70 69 67 66 65 65 65 66 67 68 69 68 67 67 67 67 66 64 62 60 59 58 58 59 60 60 60 59 59 59 59 58 58 58 58 58 57 56 54 51 49 48 47 46 45 46 46 47 48 50 51 53 54 54 54 55 56 57
68 69 69 70 71 72 71 71 70 69 69 68 68 68 69 69 69 68 67 67 67 66 64 62 62 61 60 59 60 61 61 61 61 61 62 62 61 61 60 61 61 61 60 58 54 51 50 48 46 45 45 44 44 45 46 47 48 50 51 51 52 52 54
70 70 72 73 73 74 74 74 74 73 72 71 70 69 68 69 69 68 67 66 65 64 63 63 64 63 62 62 62 62 62 62 62 63 64 64 63 63 63 63 64 63 62 61 57 53 49 47 47 47 46 44 42 41 42 44 44 45 46 47 48 49 51
69 69 70 72 73 74 75 75 75 74 74 72 71 69 68 69 69 68 68 68 66 65 65 65 65 64 63 63 64 64 64 63 62 63 65 64 64 63 62 63 63 61 60 60 57 54 51 49 48 46 43 42 42 43 43 44 44 44 43 44 44 45 47
67 67 67 68 70 71 72 73 74 74 73 72 71 69 67 68 69 69 71 70 69 68 68 67 66 65 65 64 64 64 65 64 64 64 65 64 64 62 59 59 59 58 57 55 51 48 47 44 42 41 41 43 47 48 47 47 47 46 45 44 43 42 43
67 67 66 67 68 69 70 71 71 71 71 71 70 68 68 69 70 71 71 70 69 68 68 68 68 68 67 66 64 64 64 64 64 65 66 65 65 65 63 63 63 62 60 56 49 45 46 46 46 48 49 49 50 50 50 50 50 49 48 47 46 45 43
67 68 68 69 69 70 70 70 70 70 70 69 69 68 67 68 69 69 70 69 69 70 70 70 71 70 69 67 65 64 63 63 64 65 66 65 63 63 64 64 64 64 63 61 57 55 56 57 57 56 55 53 51 50 49 50 51 51 50 50 50 49 48
67 68 69 70 70 71 72 72 72 71 70 70 69 67 67 67 67 68 69 70 70 71 72 72 72 71 70 68 66 65 63 63 63 64 64 63 61 60 59 61 63 64 65 66 65 62 61 61 59 57 55 53 51 48 46 45 46 48 49 51 52 52 52
67 68 69 70 71 72 73 73 73 72 72 71 70 69 67 67 68 70 71 72 71 71 70 71 71 71 71 70 68 67 65 64 65 65 64 64 64 63 62 63 65 65 66 67 67 65 64 63 62 60 57 55 53 51 49 46 45 45 46 47 49 51 53
68 69 70 71 72 73 74 75 74 74 74 73 73 72 70 70 73 74 73 73 73 73 72 73 74 74 74 72 70 69 67 66 66 66 65 65 67 67 67 66 66 66 66 65 65 65 65 65 65 64 63 63 61 59 56 54 52 50 48 46 47 48 50
71 72 73 74 75 76 77 77 77 77 77 77 77 77 76 75 74 72 71 71 72 73 73 74 75 75 74 72 71 69 68 66 66 66 65 67 69 70 70 68 67 68 68 66 65 64 64 65 65 66 67 67 67 65 64 62 60 57 54 51 49 48 49
75 76 77 78 78 79 80 81 81 81 80 81 81 79 79 76 72 70 72 72 72 72 70 70 73 74 73 71 71 70 69 68 67 66 66 69 70 71 72 72 71 70 70 69 69 69 68 67 68 69 69 69 69 69 69 68 66 64 62 60 57 55 53
76 77 78 78 78 79 79 80 80 80 80 79 79 77 76 74 71 71 71 69 69 67 63 65 72 74 73 72 72 71 71 70 69 68 69 70 71 72 75 76 74 73 72 72 72 73 73 71 71 70 70 70 71 72 72 72 70 69 69 68 66 65 62
73 74 74 74 73 73 73 74 74 74 73 72 72 71 70 69 68 69 67 65 66 65 62 64 70 71 70 71 71 71 72 71 71 71 73 73 74 77 80 79 76 74 74 74 74 74 75 74 73 71 71 71 71 72 73 74 73 72 72 72 71 70 69
70 70 70 70 69 68 68 68 69 68 68 68 68 67 66 66 65 65 66 65 65 65 63 64 66 66 66 67 69 69 70 70 71 73 74 76 80 82 81 78 77 76 75 75 75 75 76 76 76 74 74 74 73 72 72 73 74 74 74 74 73 72 71
70 70 70 69 68 68 68 68 68 68 68 68 68 68 67 66 65 65 65 64 64 65 65 64 65 66 66 66 67 67 67 68 71 72 73 77 82 82 78 74 74 76 77 78 78 78 79 79 78 77 77 77 77 76 75 75 76 77 76 75 75 73 72
71 71 71 71 70 70 70 70 70 70 70 70 70 70 70 69 68 67 66 66 65 65 65 65 66 67 66 65 66 67 68 71 72 71 71 74 76 77 76 73 71 71 73 75 77 78 79 78 78 78 79 78 78 77 76 76 77 77 76 74 73 72 71
74 74 73 73 73 73 73 73 73 73 72 72 72 72 72 72 71 71 70 69 68 67 67 67 67 66 65 65 65 67 71 75 75 72 71 70 70 72 74 73 71 68 67 67 69 70 71 72 72 73 74 74 74 74 74 73 73 73 72 71 70 70 70
77 77 76 76 76 76 75 76 76 76 75 75 75 75 75 75 75 75 74 72 72 71 70 70 70 68 67 66 65 68 73 76 75 74 73 71 70 72 73 73 71 69 67 65 65 65 66 67 68 69 69 70 70 70 71 72 71 71 70 70 71 71 71